Weather History for KTRL - July, 2013

Change the Weather History Date:

Tuesday, July 16, 2013

  Actual Average (KDFW) Record (KDFW)
Temperature  
Mean Temperature 82 °F 85 °F  
Max Temperature 91 °F 96 °F 108 °F (1980)
Min Temperature 72 °F 75 °F 65 °F (1967)
Degree Days  
Heating Degree Days 0 0  
Month to date heating degree days 0  
Since 1 June heating degree days 0  
Since 1 July heating degree days 0  
Cooling Degree Days 16 20  
Month to date cooling degree days 315  
Year to date cooling degree days 1228  
Since 1 June cooling degree days 806  
Growing Degree Days 32 (Base 50)    
Moisture  
Dew Point 72 °F    
Average Humidity 85    
Maximum Humidity 100    
Minimum Humidity 48    
Precipitation  
Precipitation 0.51 in 0.07 in 0.87 in (1976)
Month to date precipitation 1.33  
Year to date precipitation 21.37  
Sea Level Pressure  
Sea Level Pressure 30.14 in    
Wind  
Wind Speed 6 mph (East)    
Max Wind Speed 20 mph    
Max Gust Speed 25 mph    
Visibility 9 miles    
Events Rain , Thunderstorm    
T = Trace of Precipitation, MM = Missing Value Source: NWS Daily Summary

Daily Weather History Graph

Daily Weather History Graph

Search for Another Location

Airport or City:

Trip Planner

Search our weather history database for the weather conditions in past years. The results will help you decide how hot, cold, wet, or windy it might be!

Date:

Astronomy

Jul. 16, 2013 Rise Set
Actual Time 6:28 AM CDT 8:33 PM CDT
Civil Twilight 6:00 AM CDT 9:01 PM CDT
Nautical Twilight 5:27 AM CDT 9:34 PM CDT
Astronomical Twilight 4:50 AM CDT 10:11 PM CDT
Moon 2:23 PM CDT (7/16) 12:49 AM CDT (7/16)
Length of Visible Light 15h 00m
Length of Day
14h 04m
First Quarter, 56% of the Moon is Illuminated
Jul 16
First Quarter
Jul 22
Full
Jul 29
Last Quarter
Aug 6
New
Aug 14
First Quarter

Hourly Weather History & Observations

Time (CDT) Temp. Heat Index Dew Point Humidity Pressure Visibility Wind Dir Wind Speed Gust Speed Precip Events Conditions
12:53 AM 73.0 °F - 71.1 °F 93% 30.10 in 10.0 mi East 4.6 mph - N/A   Mostly Cloudy
1:53 AM 73.0 °F - 71.1 °F 93% 30.09 in 10.0 mi East 4.6 mph - N/A   Clear
2:53 AM 73.0 °F - 71.1 °F 93% 30.09 in 10.0 mi East 3.5 mph - N/A   Partly Cloudy
3:53 AM 73.0 °F - 71.1 °F 93% 30.09 in 10.0 mi East 4.6 mph - N/A   Mostly Cloudy
4:53 AM 73.0 °F - 71.1 °F 93% 30.08 in 10.0 mi East 4.6 mph - N/A   Clear
5:53 AM 73.0 °F - 71.1 °F 93% 30.10 in 10.0 mi East 5.8 mph - N/A   Clear
6:53 AM 73.0 °F - 72.0 °F 96% 30.12 in 10.0 mi East 5.8 mph - N/A   Clear
7:17 AM 73.4 °F - 71.6 °F 94% 30.14 in 9.0 mi Variable 4.6 mph - N/A   Partly Cloudy
7:53 AM 75.0 °F - 72.0 °F 90% 30.13 in 10.0 mi East 5.8 mph - N/A   Clear
8:53 AM 75.9 °F - 73.0 °F 91% 30.15 in 10.0 mi East 5.8 mph - N/A   Scattered Clouds
9:12 AM 75.2 °F - 73.4 °F 94% 30.18 in 10.0 mi East 9.2 mph - N/A   Mostly Cloudy
9:23 AM 75.2 °F - 73.4 °F 94% 30.17 in 10.0 mi East 8.1 mph - N/A   Mostly Cloudy
9:53 AM 77.0 °F - 73.9 °F 90% 30.16 in 10.0 mi East 8.1 mph - N/A   Mostly Cloudy
10:09 AM 78.8 °F - 73.4 °F 83% 30.17 in 10.0 mi East 8.1 mph - N/A   Scattered Clouds
10:53 AM 79.0 °F - 73.0 °F 82% 30.16 in 10.0 mi East 9.2 mph - N/A   Partly Cloudy
11:53 AM 84.0 °F 89.6 °F 72.0 °F 67% 30.16 in 10.0 mi East 9.2 mph - N/A   Clear
12:53 PM 84.9 °F 89.4 °F 70.0 °F 61% 30.15 in 10.0 mi ESE 9.2 mph - N/A   Scattered Clouds
1:53 PM 87.1 °F 92.0 °F 70.0 °F 57% 30.13 in 10.0 mi East 8.1 mph - N/A   Scattered Clouds
2:53 PM 90.0 °F 93.6 °F 68.0 °F 48% 30.10 in 10.0 mi ESE 6.9 mph 17.3 mph N/A   Partly Cloudy
3:53 PM 89.1 °F 92.9 °F 68.0 °F 50% 30.09 in 10.0 mi ENE 5.8 mph - N/A   Mostly Cloudy
4:48 PM 89.6 °F 94.7 °F 69.8 °F 52% 30.10 in 10.0 mi ENE 11.5 mph - 0.00 in Rain , Thunderstorm Light Rain
4:53 PM 88.0 °F 92.9 °F 70.0 °F 55% 30.09 in 10.0 mi ENE 12.7 mph - 0.00 in Rain , Thunderstorm Light Rain
4:58 PM 82.4 °F 88.2 °F 73.4 °F 74% 30.12 in 1.5 mi NE 19.6 mph 25.3 mph 0.15 in Rain , Thunderstorm Light Thunderstorms and Rain
5:09 PM 78.8 °F - 73.4 °F 83% 30.12 in 5.0 mi East 4.6 mph 18.4 mph 0.17 in Rain , Thunderstorm Light Thunderstorms and Rain
5:53 PM 78.1 °F - 73.0 °F 84% 30.10 in 10.0 mi Calm Calm - 0.17 in Rain , Thunderstorm Light Rain
6:12 PM 78.8 °F - 75.2 °F 89% 30.12 in 9.0 mi Calm Calm - 0.00 in Rain Light Rain
6:53 PM 78.1 °F - 75.9 °F 93% 30.10 in 8.0 mi West 3.5 mph - 0.01 in   Clear
7:53 PM 77.0 °F - 75.9 °F 96% 30.10 in 9.0 mi NNW 3.5 mph - 0.00 in   Partly Cloudy
8:53 PM 75.9 °F - 75.9 °F 100% 30.12 in 8.0 mi NNE 3.5 mph - N/A   Clear
9:53 PM 75.9 °F - 75.0 °F 97% 30.15 in 9.0 mi Calm Calm - N/A   Scattered Clouds
10:36 PM 75.2 °F - 73.4 °F 94% 30.20 in 9.0 mi South 16.1 mph 21.9 mph N/A Thunderstorm Mostly Cloudy
10:49 PM 75.2 °F - 71.6 °F 89% 30.23 in 10.0 mi SSE 16.1 mph - 0.00 in Rain , Thunderstorm Light Thunderstorms and Rain
10:53 PM 73.9 °F - 72.0 °F 93% 30.22 in 5.0 mi SE 13.8 mph 24.2 mph 0.04 in Rain , Thunderstorm Heavy Thunderstorms and Rain
11:01 PM 73.4 °F - 73.4 °F 100% 30.24 in 2.5 mi SE 9.2 mph - 0.09 in Rain , Thunderstorm Heavy Thunderstorms and Rain
11:08 PM 73.4 °F - 73.4 °F 100% 30.23 in 2.0 mi Calm Calm - 0.17 in Rain , Thunderstorm Heavy Thunderstorms and Rain
11:13 PM 73.4 °F - 73.4 °F 100% 30.23 in 3.0 mi South 4.6 mph - 0.19 in Rain , Thunderstorm Heavy Thunderstorms and Rain
11:53 PM 72.0 °F - 72.0 °F 100% 30.20 in 7.0 mi North 5.8 mph - 0.29 in Rain , Thunderstorm Thunderstorms and Rain